Weather History for Tindouf, Algeria

Change the Weather History Date:

Wednesday, February 13, 2013

  Actual Average Record
Temperature  
Mean Temperature 62 °F -  
Max Temperature 81 °F - - ()
Min Temperature 44 °F - - ()
Degree Days  
Heating Degree Days 2    
Growing Degree Days 12 (Base 50)    
Moisture  
Dew Point 27 °F    
Average Humidity 27    
Maximum Humidity 49    
Minimum Humidity 4    
Precipitation  
Precipitation 0.00 in - - ()
Sea Level Pressure  
Sea Level Pressure 30.05 in    
Wind  
Wind Speed 9 mph ()    
Max Wind Speed 21 mph    
Max Gust Speed -    
Visibility 5.8 miles    
Events      
T = Trace of Precipitation, MM = Missing Value Source: Averaged Metar Reports

Daily Weather History Graph

Daily Weather History Graph

Search for Another Location

Airport:

Trip Planner

Search our weather history database for the weather conditions in past years. The results will help you decide how hot, cold, wet, or windy it might be!

Date:

Astronomy

Feb. 13, 2013 Rise Set
Actual Time 8:11 AM CET 7:22 PM CET
Civil Twilight 7:47 AM CET 7:46 PM CET
Nautical Twilight 7:19 AM CET 8:14 PM CET
Astronomical Twilight 6:52 AM CET 8:41 PM CET
Moon 9:56 AM CET (2/13) 10:45 PM CET (2/13)
Length of Visible Light 11h 59m
Length of Day
11h 11m
Waxing Crescent, 12% of the Moon is Illuminated
Feb 13
Waxing Crescent
Feb 17
First Quarter
Feb 25
Full
Mar 4
Last Quarter
Mar 11
New

Hourly Weather History & Observations

Time (CET) Temp. Windchill Dew Point Humidity Pressure Visibility Wind Dir Wind Speed Gust Speed Precip Events Conditions
1:00 AM 55 °F - 24 °F 19% 29.98 in 6 mi ENE 5.8 mph - -  
1:00 AM 55.4 °F - 24.8 °F 31% 30.01 in - ENE 5.8 mph - N/A   Clear
2:00 AM 51.8 °F - 24.8 °F 35% 30.01 in - NNE 5.8 mph - N/A   Clear
3:00 AM 50.0 °F - 24.8 °F 37% 30.01 in - NNE 5.8 mph - N/A   Clear
4:00 AM 49 °F - 25 °F 26% 29.99 in 6 mi NNW 5.8 mph - -  
4:00 AM 48.2 °F - 24.8 °F 40% 30.01 in - NNW 5.8 mph - N/A   Clear
6:00 AM 46.4 °F 43.5 °F 24.8 °F 43% 30.01 in - NNW 5.8 mph - N/A   Clear
7:00 AM 46 °F - 26 °F 33% 30.01 in 6 mi North 11.5 mph - -  
7:00 AM 46.4 °F 41.1 °F 26.6 °F 46% 30.04 in - North 11.5 mph - N/A   Clear
8:00 AM 44.6 °F 39.7 °F 26.6 °F 49% 30.04 in - NNE 9.2 mph - N/A   Clear
9:00 AM 48.2 °F - 28.4 °F 46% 30.06 in - NNE 5.8 mph - N/A   Clear
10:00 AM 52 °F - 29 °F 28% 30.08 in 9 mi NE 9.2 mph - -  
10:00 AM 51.8 °F - 28.4 °F 41% 30.09 in - NE 9.2 mph - N/A   Clear
11:00 AM 60.8 °F - 30.2 °F 31% 30.09 in - East 11.5 mph - N/A   Clear
12:00 PM 64.4 °F - 28.4 °F 26% 30.12 in - East 16.1 mph - N/A   Clear
1:00 PM 66 °F - 27 °F 13% 30.10 in 6 mi East 13.8 mph - -  
1:00 PM 66.2 °F - 26.6 °F 23% 30.12 in - East 13.8 mph - N/A   Clear
2:00 PM 71.6 °F - 23.0 °F 16% 30.09 in 5.6 mi East 18.4 mph - N/A   Unknown
3:00 PM 78.8 °F - 17.6 °F 10% 30.06 in 5.0 mi East 20.7 mph - N/A   Unknown
4:00 PM 82 °F - 18 °F 4% 30.03 in 5 mi East 20.7 mph - -  
4:00 PM 80.6 °F - 17.6 °F 10% 30.06 in 5.0 mi East 20.7 mph - N/A   Unknown
5:00 PM 80.6 °F - 41.0 °F 24% 30.04 in 5.0 mi East 20.7 mph - N/A   Unknown
6:00 PM 77.0 °F - 41.0 °F 28% 30.04 in 5.0 mi ESE 18.4 mph - N/A   Unknown
7:00 PM 74 °F - 31 °F 11% 30.04 in 6 mi East 13.8 mph - -  
7:00 PM 73.4 °F - 30.2 °F 20% 30.06 in 5.6 mi East 13.8 mph - N/A   Unknown
8:00 PM 71.6 °F - 30.2 °F 22% 30.06 in 5.6 mi East 12.7 mph - N/A   Unknown
9:00 PM 68.0 °F - 30.2 °F 24% 30.06 in - East 11.5 mph - N/A   Clear
10:00 PM 65 °F - 30 °F 16% 30.08 in 6 mi East 9.2 mph - -  
10:00 PM 66.2 °F - 30.2 °F 26% 30.09 in - East 9.2 mph - N/A   Clear
11:00 PM 62.6 °F - 30.2 °F 30% 30.09 in - East 11.5 mph - N/A   Clear